Satellite: METEOR-M Catalog number: 35865 Epoch time: 11125.71744284 Element set: 338 Inclination: 098.7092 deg RA of node: 181.3881 deg Eccentricity: 0.0002664 Arg of perigee: 135.8451 deg Mean anomaly: 224.2904 deg Mean motion: 14.21837794 rev/day Decay rate: 1.76e-06 rev/day^2 Epoch rev: 8455 Checksum: 313
Satellite: RS-38 Catalog number: 35869 Epoch time: 11125.72269207 Element set: 336 Inclination: 098.7062 deg RA of node: 181.4314 deg Eccentricity: 0.0004876 Arg of perigee: 144.5352 deg Mean anomaly: 215.6124 deg Mean motion: 14.22009163 rev/day Decay rate: 1.77e-06 rev/day^2 Epoch rev: 8456 Checksum: 299
/EX
participants (1)
-
Ray Hoad